User: anonymous   Login
Location: Fort Wayne
(41.1310°N, 85.1290°W)
Time: 11:41:29
(UTC-04:00)
Language:

CZ-2C R/B - Orbit

View from above orbital plane
View from above orbital plane
View from above satellite
View from above satellite

Ground track
Ground track

The orbit data is extracted from the following two-line orbital elements,

1 36089U 09061B   15115.72241361  .00000448  00000-0  12388-3 0  9992
2 36089 098.0749 141.0105 0081054 298.4120 195.6821 14.49422341288207
Epoch (UTC): 25 April 2015 17:20:16
Eccentricity: 0.0081054
inclination: 98.0749°
perigee height: 670 km
apogee height: 785 km
right ascension of ascending node: 141.0105°
argument of perigee: 298.4120°
revolutions per day: 14.49422341
mean anomaly at epoch: 195.6821°
orbit number at epoch: 28820

The dashed part of the orbit path shows where the satellite is in the earth's shadow,  

DLR